STARLINK-5436, 54795

Orbit data source: Space-Track

STARLINK-5436, 54795 is a payload satellite owned by SpaceX/Seattle (US) in LEO that was launched on Sat, 17 Dec 2022 UTC via an FALCON 9 launch vehicle from the Air Force Eastern Test Range (AFETR). Payload-class satellites include a variety of spacecraft equipped with specific instruments for various scientific and technological missions. These include communications satellites like Starlink; space stations such as the ISS; scientific satellites like the Hubble; Earth observation satellites from companies like Planet Labs, Umbra, and HawkEye 360; GPS; miniature CubeSats for education and research; and military/defense satellites.

Loading next visibility...
Identifier
54795, 2022-175AP
Orbit
LEO
Country
Flag of USUS
Related business
Manufacturer
SpaceX/Seattle
Mission
Operational Commercial Communications
Bus & Motor
STARLINK, Unknown motor
Mass
305 kg wet, ~290 kg dry
Launch date (UTC)
2022-12-17 (4 years ago)
Launch vehicle
FALCON 9
Launch site
Air Force Eastern Test Range (AFETR)
Object type
Payload
Rocket body
Debris
Shape & HBR
Box + 1 Pan, 10.1 m
Radar Cross Section
13.562 m², Large (>1 m²)

Expand to show TLE details & history
Last TLE update: 2 days ago

TLE from 2 days ago
0 STARLINK-5436
1 54795U 22175AP  26171.41668980  .00020678  00000-0  98048-3 0  9991
2 54795  53.1609 287.2760 0001751  80.6721   0.0349 15.19278414  5773
Epoch: 2026-06-20T10:00Z
TLE epoch observation values (Epoch: 2026-06-20T10:00:01.998Z)
Latitude
52.3194°
Longitude
-56.64605°
Altitude
513.169 km
Speed
7.614 km/s
True Right ascension
00h 07m 58s
True Declination
52° 08' 49"
Sunlit
Object was in daylight at epoch
Visualization orbit readout
Latitude
Unknown
Longitude
Unknown
Altitude
Unknown
Speed
Unknown
Apparent Right ascension
Unknown
Apparent Declination
Unknown
Sunlit
N/A
Visualization observer readout
Local Sidereal Time
21:47:49
Azimuth
Unknown
Elevation
Unknown
Doppler factor
Unknown
Orbital elements
Apogee altitude
509.481 km
Perigee altitude
507.069 km
Semi-major axis
6,886.412 km
Eccentricity
0.00018
Inclination
53.1609°
RAAN
287.276°
Arg. of periapsis
80.6721°
True anomaly
0.03491°
Mean anomaly
0.0349°
Eccentric anomaly
0.03491°
Mean motion
3.79799 °/min
Orbital period
94.79 mins
BSTAR
0.00098048
Loading maneuver chart data...
Computing Atmospheric mass density...

Documentation

Showing up to 5 results
|